| time (UTC) | temp C | wind direction | speed KPH | gust KPH | rain 1hr cm | rain 24hr cm | rain mn cm | humidity % | barometer mb |
| 20260508153418 | 16 | 74 | 3.2 | 3.2 | 0.00 | 0.00 | 0.00 | 65 | 1010.0 |
| 20260508152914 | 16 | 111 | 1.6 | 3.2 | 0.00 | 0.00 | 0.00 | 65 | 1010.0 |
| 20260508152411 | 16 | 230 | 3.2 | 8.0 | 0.00 | 0.00 | 0.00 | 68 | 1010.0 |
| 20260508151908 | 16 | 129 | 1.6 | 4.8 | 0.00 | 0.00 | 0.00 | 67 | 1010.1 |
| 20260508151404 | 16 | 142 | 1.6 | 3.2 | 0.00 | 0.00 | 0.00 | 65 | 1010.0 |
| 20260508150901 | 15 | 260 | 3.2 | 4.8 | 0.00 | 0.00 | 0.00 | 68 | 1010.0 |
| 20260508150357 | 15 | 132 | 0.0 | 3.2 | 0.00 | 0.00 | 0.00 | 69 | 1010.0 |
| 20260508145854 | 15 | 108 | 1.6 | 4.8 | 0.00 | 0.00 | 0.00 | 68 | 1010.4 |
| 20260508145350 | 15 | 151 | 1.6 | 3.2 | 0.00 | 0.00 | 0.00 | 68 | 1010.1 |
| 20260508144847 | 14 | 155 | 1.6 | 1.6 | 0.00 | 0.00 | 0.00 | 69 | 1010.4 |
| 20260508144345 | 14 | 194 | 0.0 | 3.2 | 0.00 | 0.00 | 0.00 | 70 | 1010.3 |
| 20260508143842 | 15 | 189 | 4.8 | 4.8 | 0.00 | 0.00 | 0.00 | 66 | 1010.5 |
| 20260508143339 | 15 | 81 | 0.0 | 1.6 | 0.00 | 0.00 | 0.00 | 66 | 1010.4 |
| 20260508142836 | 15 | 108 | 0.0 | 1.6 | 0.00 | 0.00 | 0.00 | 66 | 1010.5 |
| 20260508142332 | 14 | 79 | 1.6 | 1.6 | 0.00 | 0.00 | 0.00 | 65 | 1010.4 |
| 20260508141829 | 13 | 101 | 0.0 | 1.6 | 0.00 | 0.00 | 0.00 | 69 | 1010.3 |
| 20260508141326 | 13 | 117 | 0.0 | 1.6 | 0.00 | 0.00 | 0.00 | 71 | 1010.4 |
| 20260508140823 | 13 | 95 | 3.2 | 3.2 | 0.00 | 0.00 | 0.00 | 69 | 1010.5 |
| 20260508140320 | 12 | 80 | 0.0 | 1.6 | 0.00 | 0.00 | 0.00 | 71 | 1010.5 |
| 20260508135816 | 12 | 63 | 1.6 | 3.2 | 0.00 | 0.00 | 0.00 | 71 | 1010.7 |
| 20260508135313 | 12 | 104 | 1.6 | 3.2 | 0.00 | 0.00 | 0.00 | 72 | 1010.4 |
| 20260508134808 | 11 | 87 | 0.0 | 3.2 | 0.00 | 0.00 | 0.00 | 77 | 1010.7 |
| 20260508134305 | 11 | 96 | 0.0 | 1.6 | 0.00 | 0.00 | 0.00 | 79 | 1010.3 |
| 20260508133802 | 11 | 186 | 1.6 | 4.8 | 0.00 | 0.00 | 0.00 | 80 | 1010.5 |
| 20260508133300 | 11 | 97 | 0.0 | 1.6 | 0.00 | 0.00 | 0.00 | 81 | 1010.5 |
| 20260508132757 | 10 | 142 | 0.0 | 1.6 | 0.00 | 0.00 | 0.00 | 83 | 1010.4 |
| 20260508132254 | 10 | 76 | 1.6 | 1.6 | 0.00 | 0.00 | 0.00 | 85 | 1010.5 |
| 20260508131750 | 10 | 94 | 1.6 | 1.6 | 0.00 | 0.00 | 0.00 | 86 | 1010.4 |
| 20260508131247 | 9 | 88 | 1.6 | 1.6 | 0.00 | 0.00 | 0.00 | 87 | 1010.4 |
| 20260508130743 | 9 | 85 | 0.0 | 1.6 | 0.00 | 0.00 | 0.00 | 88 | 1010.3 |
| 20260508130241 | 8 | 89 | 0.0 | 3.2 | 0.00 | 0.00 | 0.00 | 88 | 1010.3 |
| 20260508125736 | 8 | 92 | 1.6 | 1.6 | 0.00 | 0.00 | 0.00 | 90 | 1010.5 |
| 20260508125232 | 8 | 97 | 1.6 | 1.6 | 0.00 | 0.00 | 0.00 | 90 | 1010.3 |
| 20260508124731 | 8 | 102 | 1.6 | 4.8 | 0.00 | 0.00 | 0.00 | 90 | 1010.7 |
| 20260508124228 | 8 | 85 | 1.6 | 1.6 | 0.00 | 0.00 | 0.00 | 92 | 1010.3 |
| 20260508123726 | 7 | 87 | 1.6 | 1.6 | 0.00 | 0.00 | 0.00 | 93 | 1010.2 |
| 20260508123224 | 7 | 122 | 1.6 | 3.2 | 0.00 | 0.00 | 0.00 | 95 | 1010.3 |
| 20260508122719 | 7 | 86 | 0.0 | 1.6 | 0.00 | 0.00 | 0.00 | 96 | 1010.4 |
| 20260508122217 | 7 | 85 | 0.0 | 1.6 | 0.00 | 0.00 | 0.00 | 96 | 1010.5 |
| 20260508121714 | 6 | 98 | 0.0 | 1.6 | 0.00 | 0.00 | 0.00 | 97 | 1010.7 |
| 20260508121213 | 6 | 108 | 0.0 | 0.0 | 0.00 | 0.00 | 0.00 | 98 | 1010.7 |
| 20260508120709 | 6 | 80 | 0.0 | 1.6 | 0.00 | 0.00 | 0.00 | 98 | 1010.4 |
| 20260508120208 | 6 | 67 | 1.6 | 1.6 | 0.00 | 0.00 | 0.00 | 98 | 1010.4 |
| 20260508115705 | 6 | 61 | 0.0 | 4.8 | 0.00 | 0.00 | 0.00 | 99 | 1010.3 |
| 20260508115202 | 6 | 80 | 0.0 | 0.0 | 0.00 | 0.00 | 0.00 | 99 | 1010.4 |
| 20260508114659 | 6 | 88 | 0.0 | 0.0 | 0.00 | 0.00 | 0.00 | 99 | 1010.3 |
| 20260508114155 | 6 | 92 | 0.0 | 0.0 | 0.00 | 0.00 | 0.00 | 99 | 1010.3 |
| 20260508113652 | 6 | 89 | 0.0 | 0.0 | 0.00 | 0.00 | 0.00 | 99 | 1010.3 |
| 20260508113151 | 6 | 90 | 0.0 | 0.0 | 0.00 | 0.00 | 0.00 | 99 | 1010.5 |
| 20260508112646 | 6 | 91 | 0.0 | 0.0 | 0.00 | 0.00 | 0.00 | 99 | 1010.2 |
| 20260508112143 | 6 | 89 | 0.0 | 0.0 | 0.00 | 0.00 | 0.00 | 99 | 1010.2 |
| 20260508111640 | 5 | 93 | 0.0 | 0.0 | 0.00 | 0.00 | 0.00 | 99 | 1010.2 |
| 20260508111137 | 5 | 97 | 0.0 | 0.0 | 0.00 | 0.00 | 0.00 | 99 | 1010.3 |
| 20260508110635 | 5 | 90 | 0.0 | 0.0 | 0.00 | 0.00 | 0.00 | 99 | 1010.1 |
| 20260508110131 | 5 | 89 | 0.0 | 0.0 | 0.00 | 0.00 | 0.00 | 99 | 1010.0 |
| 20260508105626 | 5 | 91 | 0.0 | 0.0 | 0.00 | 0.00 | 0.00 | 99 | 1010.0 |
| 20260508105123 | 5 | 82 | 0.0 | 0.0 | 0.00 | 0.00 | 0.00 | 99 | 1009.9 |
| 20260508104621 | 5 | 86 | 0.0 | 0.0 | 0.00 | 0.00 | 0.00 | 99 | 1010.1 |
| 20260508104117 | 5 | 84 | 0.0 | 0.0 | 0.00 | 0.00 | 0.00 | 99 | 1009.9 |
| 20260508103614 | 5 | 92 | 0.0 | 0.0 | 0.00 | 0.00 | 0.00 | 99 | 1010.5 |
| 20260508103112 | 4 | 99 | 0.0 | 0.0 | 0.00 | 0.00 | 0.00 | 99 | 1010.2 |
| 20260508102609 | 4 | 100 | 0.0 | 0.0 | 0.00 | 0.00 | 0.00 | 99 | 1010.1 |
| 20260508102107 | 4 | 98 | 0.0 | 0.0 | 0.00 | 0.00 | 0.00 | 99 | 1010.4 |
| 20260508101604 | 4 | 118 | 0.0 | 0.0 | 0.00 | 0.00 | 0.00 | 99 | 1010.4 |
| 20260508101101 | 4 | 90 | 0.0 | 0.0 | 0.00 | 0.00 | 0.00 | 99 | 1010.3 |
| 20260508100559 | 4 | 86 | 0.0 | 0.0 | 0.00 | 0.00 | 0.00 | 99 | 1010.2 |
| 20260508100055 | 4 | 87 | 0.0 | 0.0 | 0.00 | 0.00 | 0.00 | 99 | 1010.1 |
| 20260508095553 | 3 | 83 | 0.0 | 0.0 | 0.00 | 0.00 | 0.00 | 99 | 1010.3 |
| 20260508095049 | 3 | 97 | 0.0 | 0.0 | 0.00 | 0.00 | 0.00 | 99 | 1010.3 |
| 20260508094547 | 3 | 97 | 0.0 | 0.0 | 0.00 | 0.00 | 0.00 | 99 | 1010.2 |
| 20260508094044 | 3 | 96 | 0.0 | 0.0 | 0.00 | 0.00 | 0.00 | 99 | 1010.4 |
| 20260508093541 | 3 | 100 | 0.0 | 0.0 | 0.00 | 0.00 | 0.00 | 99 | 1010.4 |
| 20260508093038 | 3 | 102 | 0.0 | 0.0 | 0.00 | 0.00 | 0.00 | 99 | 1010.4 |
| 20260508092535 | 3 | 102 | 0.0 | 0.0 | 0.00 | 0.00 | 0.00 | 98 | 1010.4 |
| 20260508092034 | 3 | 102 | 0.0 | 0.0 | 0.00 | 0.00 | 0.00 | 98 | 1010.4 |
| 20260508091531 | 4 | 116 | 0.0 | 0.0 | 0.00 | 0.00 | 0.00 | 98 | 1010.4 |
| 20260508091028 | 4 | 96 | 0.0 | 0.0 | 0.00 | 0.00 | 0.00 | 98 | 1010.3 |
| 20260508090526 | 4 | 85 | 0.0 | 0.0 | 0.00 | 0.00 | 0.00 | 98 | 1010.3 |
| 20260508090022 | 4 | 94 | 0.0 | 0.0 | 0.00 | 0.00 | 0.00 | 97 | 1010.5 |
| 20260508085519 | 4 | 95 | 0.0 | 0.0 | 0.00 | 0.00 | 0.00 | 97 | 1010.5 |
| 20260508085016 | 4 | 95 | 0.0 | 0.0 | 0.00 | 0.00 | 0.00 | 97 | 1010.7 |
| 20260508084513 | 4 | 101 | 0.0 | 0.0 | 0.00 | 0.00 | 0.00 | 97 | 1010.6 |
| 20260508084010 | 4 | 105 | 0.0 | 0.0 | 0.00 | 0.00 | 0.00 | 97 | 1010.6 |
| 20260508083507 | 4 | 103 | 0.0 | 0.0 | 0.00 | 0.00 | 0.00 | 97 | 1010.6 |
| 20260508083003 | 4 | 96 | 0.0 | 0.0 | 0.00 | 0.00 | 0.00 | 96 | 1010.7 |
| 20260508082459 | 5 | 90 | 0.0 | 0.0 | 0.00 | 0.00 | 0.00 | 96 | 1010.5 |
| 20260508081957 | 5 | 79 | 0.0 | 0.0 | 0.00 | 0.00 | 0.00 | 96 | 1010.5 |
| 20260508081454 | 5 | 116 | 0.0 | 0.0 | 0.00 | 0.00 | 0.00 | 96 | 1010.7 |
| 20260508080950 | 5 | 96 | 0.0 | 0.0 | 0.00 | 0.00 | 0.00 | 96 | 1010.7 |
| 20260508080449 | 5 | 81 | 0.0 | 0.0 | 0.00 | 0.00 | 0.00 | 96 | 1010.7 |
| 20260508075945 | 5 | 88 | 0.0 | 0.0 | 0.00 | 0.00 | 0.00 | 96 | 1010.8 |
| 20260508075442 | 5 | 94 | 0.0 | 0.0 | 0.00 | 0.00 | 0.00 | 96 | 1010.7 |
| 20260508074939 | 5 | 91 | 0.0 | 0.0 | 0.00 | 0.00 | 0.00 | 96 | 1010.5 |
| 20260508074437 | 5 | 95 | 0.0 | 0.0 | 0.00 | 0.00 | 0.00 | 96 | 1010.8 |
| 20260508073934 | 5 | 90 | 0.0 | 0.0 | 0.00 | 0.00 | 0.00 | 96 | 1010.8 |
| 20260508073431 | 5 | 90 | 0.0 | 0.0 | 0.00 | 0.00 | 0.00 | 96 | 1010.9 |
| 20260508072928 | 5 | 95 | 0.0 | 0.0 | 0.00 | 0.00 | 0.00 | 96 | 1010.9 |
| 20260508072424 | 5 | 96 | 0.0 | 0.0 | 0.00 | 0.00 | 0.00 | 96 | 1010.9 |
| 20260508071922 | 5 | 127 | 0.0 | 0.0 | 0.00 | 0.00 | 0.00 | 95 | 1011.0 |
| 20260508071420 | 5 | 91 | 0.0 | 0.0 | 0.00 | 0.00 | 0.00 | 95 | 1011.0 |
| 20260508070917 | 5 | 95 | 0.0 | 0.0 | 0.00 | 0.00 | 0.00 | 95 | 1011.1 |
| 20260508070415 | 5 | 100 | 0.0 | 0.0 | 0.00 | 0.00 | 0.00 | 95 | 1011.1 |
| 20260508065912 | 5 | 118 | 0.0 | 0.0 | 0.00 | 0.00 | 0.00 | 95 | 1010.9 |
| 20260508065410 | 5 | 100 | 0.0 | 0.0 | 0.00 | 0.00 | 0.00 | 94 | 1011.2 |
| 20260508064908 | 6 | 92 | 0.0 | 0.0 | 0.00 | 0.00 | 0.00 | 94 | 1011.1 |
| 20260508064405 | 6 | 91 | 0.0 | 0.0 | 0.00 | 0.00 | 0.00 | 93 | 1010.8 |
| 20260508063903 | 6 | 90 | 0.0 | 0.0 | 0.00 | 0.00 | 0.00 | 93 | 1011.2 |
| 20260508063401 | 6 | 88 | 0.0 | 0.0 | 0.00 | 0.00 | 0.00 | 93 | 1011.0 |
| 20260508062857 | 6 | 81 | 0.0 | 0.0 | 0.00 | 0.00 | 0.00 | 93 | 1010.8 |
| 20260508062355 | 6 | 94 | 0.0 | 0.0 | 0.00 | 0.00 | 0.00 | 92 | 1010.9 |
| 20260508061852 | 6 | 103 | 0.0 | 0.0 | 0.00 | 0.00 | 0.00 | 92 | 1010.9 |
| 20260508061349 | 6 | 97 | 0.0 | 0.0 | 0.00 | 0.00 | 0.00 | 91 | 1011.2 |
| 20260508060846 | 6 | 86 | 0.0 | 0.0 | 0.00 | 0.00 | 0.00 | 91 | 1010.9 |
| 20260508060344 | 6 | 93 | 0.0 | 0.0 | 0.00 | 0.00 | 0.00 | 90 | 1011.0 |
| 20260508055838 | 6 | 91 | 0.0 | 0.0 | 0.00 | 0.00 | 0.00 | 90 | 1011.1 |
| 20260508055336 | 7 | 90 | 0.0 | 0.0 | 0.00 | 0.00 | 0.00 | 89 | 1011.0 |
| 20260508054832 | 7 | 109 | 0.0 | 0.0 | 0.00 | 0.00 | 0.00 | 88 | 1010.7 |
| 20260508054330 | 7 | 98 | 0.0 | 0.0 | 0.00 | 0.00 | 0.00 | 88 | 1010.6 |
| 20260508053827 | 7 | 85 | 0.0 | 0.0 | 0.00 | 0.00 | 0.00 | 88 | 1010.9 |
| 20260508053324 | 7 | 90 | 0.0 | 0.0 | 0.00 | 0.00 | 0.00 | 88 | 1010.8 |
| 20260508052821 | 7 | 79 | 0.0 | 0.0 | 0.00 | 0.00 | 0.00 | 87 | 1010.6 |
| 20260508052319 | 7 | 103 | 0.0 | 0.0 | 0.00 | 0.00 | 0.00 | 87 | 1010.8 |
| 20260508051815 | 7 | 104 | 0.0 | 0.0 | 0.00 | 0.00 | 0.00 | 87 | 1010.6 |
| 20260508051310 | 7 | 110 | 0.0 | 0.0 | 0.00 | 0.00 | 0.00 | 87 | 1010.6 |
| 20260508050807 | 7 | 106 | 0.0 | 0.0 | 0.00 | 0.00 | 0.00 | 86 | 1010.7 |
| 20260508050304 | 7 | 100 | 0.0 | 0.0 | 0.00 | 0.00 | 0.00 | 86 | 1010.6 |
| 20260508045759 | 8 | 91 | 0.0 | 0.0 | 0.00 | 0.03 | 0.03 | 85 | 1010.5 |
| 20260508045257 | 8 | 92 | 0.0 | 0.0 | 0.00 | 0.03 | 0.03 | 84 | 1010.8 |
| 20260508044755 | 8 | 91 | 0.0 | 0.0 | 0.00 | 0.03 | 0.03 | 84 | 1010.6 |
| 20260508044251 | 8 | 91 | 0.0 | 0.0 | 0.00 | 0.03 | 0.03 | 83 | 1010.6 |
| 20260508043747 | 8 | 99 | 0.0 | 0.0 | 0.00 | 0.03 | 0.03 | 82 | 1010.6 |
| 20260508043245 | 8 | 104 | 0.0 | 0.0 | 0.00 | 0.03 | 0.03 | 81 | 1010.4 |
| 20260508042741 | 8 | 95 | 0.0 | 0.0 | 0.00 | 0.03 | 0.03 | 80 | 1010.5 |
| 20260508042239 | 8 | 92 | 0.0 | 0.0 | 0.00 | 0.03 | 0.03 | 80 | 1010.3 |
| 20260508041735 | 8 | 89 | 0.0 | 0.0 | 0.00 | 0.03 | 0.03 | 80 | 1010.4 |
| 20260508041232 | 8 | 96 | 0.0 | 0.0 | 0.00 | 0.03 | 0.03 | 79 | 1010.3 |
| 20260508040729 | 9 | 110 | 0.0 | 0.0 | 0.00 | 0.03 | 0.03 | 78 | 1010.4 |
| 20260508040226 | 9 | 107 | 0.0 | 1.6 | 0.00 | 0.03 | 0.03 | 77 | 1010.4 |
| 20260508035723 | 9 | 109 | 0.0 | 1.6 | 0.00 | 0.03 | 0.03 | 78 | 1010.5 |
| 20260508035221 | 8 | 107 | 0.0 | 0.0 | 0.00 | 0.03 | 0.03 | 78 | 1010.2 |
| 20260508034717 | 8 | 129 | 1.6 | 3.2 | 0.00 | 0.03 | 0.03 | 79 | 1010.0 |
| 20260508034215 | 8 | 101 | 0.0 | 0.0 | 0.00 | 0.03 | 0.03 | 81 | 1010.3 |
| 20260508033711 | 8 | 97 | 0.0 | 0.0 | 0.00 | 0.03 | 0.03 | 82 | 1010.2 |
| 20260508033210 | 8 | 99 | 0.0 | 0.0 | 0.00 | 0.03 | 0.03 | 81 | 1010.0 |
| 20260508032707 | 8 | 106 | 0.0 | 0.0 | 0.00 | 0.03 | 0.03 | 81 | 1009.9 |
| 20260508032204 | 8 | 103 | 0.0 | 0.0 | 0.00 | 0.03 | 0.03 | 78 | 1010.1 |
| 20260508031701 | 8 | 102 | 0.0 | 0.0 | 0.00 | 0.03 | 0.03 | 79 | 1009.9 |
| 20260508031157 | 8 | 93 | 0.0 | 0.0 | 0.00 | 0.03 | 0.03 | 80 | 1010.1 |
| 20260508030653 | 8 | 90 | 0.0 | 0.0 | 0.00 | 0.03 | 0.03 | 79 | 1010.0 |
| 20260508030151 | 9 | 81 | 0.0 | 1.6 | 0.00 | 0.03 | 0.03 | 77 | 1010.1 |
| 20260508025647 | 8 | 151 | 1.6 | 1.6 | 0.00 | 0.03 | 0.03 | 80 | 1010.0 |
| 20260508025144 | 8 | 103 | 0.0 | 0.0 | 0.00 | 0.03 | 0.03 | 81 | 1009.8 |
| 20260508024640 | 8 | 113 | 0.0 | 0.0 | 0.00 | 0.03 | 0.03 | 83 | 1010.0 |
| 20260508024138 | 8 | 105 | 0.0 | 0.0 | 0.00 | 0.03 | 0.03 | 82 | 1009.9 |
| 20260508023633 | 8 | 106 | 0.0 | 0.0 | 0.00 | 0.03 | 0.03 | 81 | 1009.8 |
| 20260508023132 | 8 | 108 | 0.0 | 0.0 | 0.00 | 0.03 | 0.03 | 81 | 1010.0 |
| 20260508022627 | 8 | 94 | 0.0 | 0.0 | 0.00 | 0.03 | 0.03 | 80 | 1010.0 |
| 20260508022124 | 9 | 94 | 0.0 | 0.0 | 0.00 | 0.03 | 0.03 | 79 | 1009.9 |
| 20260508021620 | 9 | 92 | 0.0 | 0.0 | 0.00 | 0.03 | 0.03 | 79 | 1009.8 |
| 20260508021116 | 9 | 92 | 0.0 | 0.0 | 0.00 | 0.03 | 0.03 | 79 | 1009.7 |
| 20260508020614 | 9 | 92 | 0.0 | 0.0 | 0.00 | 0.03 | 0.03 | 79 | 1009.6 |
| 20260508020111 | 9 | 95 | 0.0 | 0.0 | 0.00 | 0.03 | 0.03 | 78 | 1009.6 |
| 20260508015609 | 9 | 95 | 0.0 | 0.0 | 0.00 | 0.03 | 0.03 | 77 | 1009.5 |
| 20260508015105 | 9 | 95 | 0.0 | 0.0 | 0.00 | 0.03 | 0.03 | 77 | 1009.5 |
| 20260508014601 | 10 | 95 | 0.0 | 0.0 | 0.00 | 0.03 | 0.03 | 76 | 1009.3 |
| 20260508014058 | 10 | 96 | 0.0 | 0.0 | 0.00 | 0.03 | 0.03 | 75 | 1009.4 |
| 20260508013554 | 10 | 101 | 0.0 | 0.0 | 0.00 | 0.03 | 0.03 | 75 | 1009.2 |
| 20260508013051 | 10 | 95 | 0.0 | 0.0 | 0.00 | 0.03 | 0.03 | 75 | 1009.0 |
| 20260508012549 | 10 | 104 | 0.0 | 0.0 | 0.00 | 0.03 | 0.03 | 74 | 1009.2 |
| 20260508012046 | 10 | 104 | 0.0 | 0.0 | 0.00 | 0.03 | 0.03 | 72 | 1009.1 |
| 20260508011544 | 10 | 105 | 0.0 | 0.0 | 0.00 | 0.03 | 0.03 | 74 | 1009.1 |
| 20260508011041 | 10 | 113 | 0.0 | 0.0 | 0.00 | 0.03 | 0.03 | 74 | 1009.3 |
| 20260508010538 | 11 | 94 | 0.0 | 0.0 | 0.00 | 0.03 | 0.03 | 72 | 1009.1 |
| 20260508010035 | 11 | 94 | 0.0 | 0.0 | 0.00 | 0.03 | 0.03 | 71 | 1009.0 |
| 20260508005532 | 11 | 94 | 0.0 | 0.0 | 0.00 | 0.03 | 0.03 | 70 | 1009.1 |
| 20260508005029 | 11 | 94 | 0.0 | 0.0 | 0.00 | 0.03 | 0.03 | 68 | 1008.9 |
| 20260508004524 | 12 | 93 | 0.0 | 0.0 | 0.00 | 0.03 | 0.03 | 68 | 1008.8 |
| 20260508004021 | 12 | 92 | 0.0 | 0.0 | 0.00 | 0.03 | 0.03 | 67 | 1008.9 |
| 20260508003518 | 12 | 92 | 0.0 | 0.0 | 0.00 | 0.03 | 0.03 | 65 | 1008.9 |
| 20260508003016 | 13 | 92 | 0.0 | 0.0 | 0.00 | 0.03 | 0.03 | 65 | 1008.9 |
| 20260508002511 | 13 | 92 | 0.0 | 0.0 | 0.00 | 0.03 | 0.03 | 61 | 1009.0 |
| 20260508002009 | 13 | 92 | 0.0 | 0.0 | 0.00 | 0.03 | 0.03 | 63 | 1008.9 |
| 20260508001505 | 13 | 80 | 0.0 | 0.0 | 0.00 | 0.03 | 0.03 | 61 | 1008.9 |
| 20260508001001 | 13 | 80 | 0.0 | 0.0 | 0.00 | 0.03 | 0.03 | 60 | 1008.8 |
| 20260508000457 | 14 | 98 | 0.0 | 0.0 | 0.00 | 0.03 | 0.03 | 59 | 1009.0 |
| 20260507235954 | 14 | 102 | 1.6 | 3.2 | 0.00 | 0.03 | 0.03 | 58 | 1008.9 |
| 20260507235451 | 14 | 102 | 1.6 | 1.6 | 0.00 | 0.03 | 0.03 | 57 | 1008.8 |
| 20260507234949 | 14 | 111 | 1.6 | 3.2 | 0.00 | 0.03 | 0.03 | 59 | 1008.7 |
| 20260507234445 | 14 | 86 | 1.6 | 1.6 | 0.00 | 0.03 | 0.03 | 60 | 1008.8 |
| 20260507233941 | 14 | 167 | 1.6 | 1.6 | 0.00 | 0.03 | 0.03 | 59 | 1008.7 |
| 20260507233438 | 13 | 110 | 1.6 | 4.8 | 0.00 | 0.03 | 0.03 | 64 | 1008.9 |
| 20260507232937 | 13 | 69 | 1.6 | 1.6 | 0.00 | 0.03 | 0.03 | 63 | 1009.0 |
| 20260507232433 | 13 | 327 | 1.6 | 3.2 | 0.00 | 0.03 | 0.03 | 62 | 1008.9 |
| 20260507231930 | 13 | 62 | 0.0 | 3.2 | 0.00 | 0.03 | 0.03 | 63 | 1009.0 |
| 20260507231426 | 13 | 98 | 1.6 | 3.2 | 0.00 | 0.03 | 0.03 | 61 | 1008.8 |
| 20260507230923 | 13 | 280 | 3.2 | 3.2 | 0.00 | 0.03 | 0.03 | 62 | 1009.0 |
| 20260507230421 | 13 | 97 | 0.0 | 1.6 | 0.00 | 0.03 | 0.03 | 62 | 1009.2 |
| 20260507225921 | 13 | 95 | 0.0 | 1.6 | 0.00 | 0.03 | 0.03 | 64 | 1009.3 |
| 20260507225417 | 13 | 138 | 1.6 | 1.6 | 0.00 | 0.03 | 0.03 | 67 | 1009.3 |
| 20260507224913 | 13 | 355 | 1.6 | 3.2 | 0.00 | 0.03 | 0.03 | 68 | 1009.6 |
| 20260507224409 | 13 | 96 | 0.0 | 1.6 | 0.00 | 0.03 | 0.03 | 72 | 1009.7 |
| 20260507223906 | 13 | 61 | 0.0 | 1.6 | 0.00 | 0.03 | 0.03 | 72 | 1009.3 |
| 20260507223402 | 12 | 92 | 0.0 | 1.6 | 0.00 | 0.03 | 0.03 | 71 | 1009.6 |
| 20260507222859 | 13 | 73 | 1.6 | 1.6 | 0.00 | 0.03 | 0.03 | 70 | 1009.7 |
| 20260507222356 | 13 | 110 | 0.0 | 1.6 | 0.00 | 0.03 | 0.03 | 70 | 1009.6 |
| 20260507221853 | 13 | 91 | 0.0 | 0.0 | 0.00 | 0.03 | 0.03 | 70 | 1009.4 |
| 20260507221349 | 12 | 85 | 0.0 | 0.0 | 0.00 | 0.03 | 0.03 | 71 | 1009.6 |
| 20260507220845 | 13 | 81 | 0.0 | 1.6 | 0.00 | 0.03 | 0.03 | 69 | 1009.6 |
| 20260507220344 | 13 | 90 | 0.0 | 1.6 | 0.00 | 0.03 | 0.03 | 74 | 1009.8 |
| 20260507215839 | 12 | 97 | 0.0 | 1.6 | 0.00 | 0.03 | 0.03 | 75 | 1009.8 |
| 20260507215337 | 12 | 104 | 1.6 | 3.2 | 0.18 | 0.03 | 0.03 | 78 | 1009.5 |
| 20260507214834 | 11 | 75 | 1.6 | 9.7 | 0.18 | 0.03 | 0.03 | 76 | 1009.8 |
| 20260507214332 | 12 | 64 | 4.8 | 4.8 | 0.00 | 0.00 | 0.00 | 68 | 1009.9 |
| 20260507213826 | 12 | 43 | 3.2 | 9.7 | 0.00 | 0.00 | 0.00 | 60 | 1009.5 |
| 20260507213323 | 13 | 171 | 3.2 | 4.8 | 0.00 | 0.00 | 0.00 | 59 | 1009.5 |
| 20260507212820 | 14 | 117 | 4.8 | 4.8 | 0.00 | 0.00 | 0.00 | 60 | 1009.4 |
| 20260507212316 | 14 | 322 | 4.8 | 8.0 | 0.00 | 0.00 | 0.00 | 57 | 1009.2 |
| 20260507211813 | 15 | 206 | 3.2 | 12.9 | 0.00 | 0.00 | 0.00 | 55 | 1009.1 |
| 20260507211310 | 15 | 145 | 6.4 | 12.9 | 0.00 | 0.00 | 0.00 | 53 | 1009.2 |
| 20260507210806 | 15 | 262 | 4.8 | 9.7 | 0.00 | 0.00 | 0.00 | 51 | 1009.0 |
| 20260507210303 | 15 | 246 | 6.4 | 14.5 | 0.00 | 0.00 | 0.00 | 51 | 1008.9 |
| 20260507205759 | 16 | 38 | 3.2 | 14.5 | 0.00 | 0.00 | 0.00 | 51 | 1009.1 |
| 20260507205257 | 16 | 207 | 4.8 | 11.3 | 0.00 | 0.00 | 0.00 | 51 | 1009.2 |
| 20260507204752 | 16 | 287 | 6.4 | 11.3 | 0.00 | 0.00 | 0.00 | 48 | 1009.3 |
| 20260507204251 | 16 | 211 | 6.4 | 17.7 | 0.00 | 0.00 | 0.00 | 50 | 1009.2 |
| 20260507203748 | 16 | 163 | 4.8 | 12.9 | 0.00 | 0.00 | 0.00 | 50 | 1009.5 |
| 20260507203245 | 16 | 117 | 3.2 | 16.1 | 0.00 | 0.00 | 0.00 | 53 | 1009.4 |
| 20260507202742 | 16 | 183 | 4.8 | 16.1 | 0.00 | 0.00 | 0.00 | 54 | 1009.4 |
| 20260507202238 | 15 | 184 | 6.4 | 17.7 | 0.00 | 0.00 | 0.00 | 54 | 1009.6 |
| 20260507201732 | 15 | 308 | 6.4 | 11.3 | 0.00 | 0.00 | 0.00 | 55 | 1009.7 |
| 20260507201230 | 15 | 189 | 8.0 | 11.3 | 0.00 | 0.00 | 0.00 | 56 | 1009.7 |
| 20260507200726 | 15 | 266 | 6.4 | 22.5 | 0.00 | 0.00 | 0.00 | 53 | 1009.9 |
| 20260507200222 | 15 | 165 | 8.0 | 20.9 | 0.00 | 0.00 | 0.00 | 54 | 1010.0 |
| 20260507195719 | 15 | 121 | 9.7 | 14.5 | 0.00 | 0.00 | 0.00 | 54 | 1009.8 |
| 20260507195216 | 15 | 156 | 6.4 | 14.5 | 0.00 | 0.00 | 0.00 | 57 | 1010.0 |
| 20260507194713 | 15 | 186 | 8.0 | 12.9 | 0.00 | 0.00 | 0.00 | 55 | 1010.1 |
| 20260507194209 | 15 | 50 | 3.2 | 9.7 | 0.00 | 0.00 | 0.00 | 57 | 1010.4 |
| 20260507193706 | 15 | 204 | 4.8 | 12.9 | 0.00 | 0.00 | 0.00 | 57 | 1010.6 |
| 20260507193203 | 15 | 167 | 8.0 | 16.1 | 0.00 | 0.00 | 0.00 | 57 | 1010.5 |
| 20260507192658 | 15 | 171 | 6.4 | 16.1 | 0.00 | 0.00 | 0.00 | 56 | 1010.5 |
| 20260507192156 | 15 | 239 | 8.0 | 20.9 | 0.00 | 0.00 | 0.00 | 57 | 1010.8 |
| 20260507191651 | 14 | 178 | 6.4 | 24.1 | 0.00 | 0.00 | 0.00 | 58 | 1010.9 |
| 20260507191148 | 13 | 138 | 14.5 | 22.5 | 0.00 | 0.00 | 0.00 | 59 | 1010.8 |
| 20260507190645 | 13 | 163 | 8.0 | 24.1 | 0.00 | 0.00 | 0.00 | 57 | 1010.7 |
| 20260507190144 | 13 | 93 | 4.8 | 16.1 | 0.00 | 0.00 | 0.00 | 57 | 1011.1 |
| 20260507185642 | 13 | 285 | 9.7 | 22.5 | 0.00 | 0.00 | 0.00 | 57 | 1011.2 |
| 20260507185138 | 13 | 174 | 8.0 | 16.1 | 0.00 | 0.00 | 0.00 | 57 | 1011.2 |
| 20260507184636 | 15 | 139 | 3.2 | 20.9 | 0.00 | 0.00 | 0.00 | 56 | 1011.1 |
| 20260507184134 | 13 | 323 | 9.7 | 22.5 | 0.00 | 0.00 | 0.00 | 54 | 1011.1 |
| 20260507183630 | 15 | 236 | 8.0 | 20.9 | 0.00 | 0.00 | 0.00 | 51 | 1011.1 |
| 20260507183127 | 15 | 88 | 4.8 | 14.5 | 0.00 | 0.00 | 0.00 | 49 | 1011.3 |
| 20260507182624 | 15 | 247 | 9.7 | 20.9 | 0.00 | 0.00 | 0.00 | 48 | 1011.2 |
| 20260507182120 | 15 | 264 | 8.0 | 17.7 | 0.00 | 0.00 | 0.00 | 46 | 1011.2 |
| 20260507181616 | 15 | 269 | 4.8 | 12.9 | 0.00 | 0.00 | 0.00 | 46 | 1011.4 |
| 20260507181113 | 15 | 265 | 9.7 | 17.7 | 0.00 | 0.00 | 0.00 | 45 | 1011.3 |
| 20260507180609 | 15 | 162 | 3.2 | 14.5 | 0.00 | 0.00 | 0.00 | 48 | 1011.3 |
| 20260507180107 | 15 | 255 | 9.7 | 14.5 | 0.00 | 0.00 | 0.00 | 46 | 1011.3 |
| 20260507175602 | 15 | 263 | 4.8 | 14.5 | 0.00 | 0.00 | 0.00 | 48 | 1011.4 |
| 20260507175100 | 15 | 257 | 4.8 | 22.5 | 0.00 | 0.00 | 0.00 | 45 | 1011.6 |
| 20260507174557 | 15 | 264 | 11.3 | 17.7 | 0.00 | 0.00 | 0.00 | 41 | 1011.4 |
| 20260507174055 | 15 | 141 | 9.7 | 14.5 | 0.00 | 0.00 | 0.00 | 43 | 1011.8 |
| 20260507173552 | 15 | 245 | 8.0 | 14.5 | 0.00 | 0.00 | 0.00 | 43 | 1011.5 |
| 20260507173049 | 16 | 143 | 8.0 | 14.5 | 0.00 | 0.00 | 0.00 | 41 | 1011.8 |
| 20260507172544 | 15 | 176 | 4.8 | 9.7 | 0.00 | 0.00 | 0.00 | 43 | 1011.6 |
| 20260507172042 | 15 | 307 | 4.8 | 17.7 | 0.00 | 0.00 | 0.00 | 43 | 1012.1 |
| 20260507171537 | 15 | 111 | 3.2 | 4.8 | 0.00 | 0.00 | 0.00 | 46 | 1012.4 |
| 20260507171034 | 14 | 219 | 4.8 | 8.0 | 0.00 | 0.00 | 0.00 | 44 | 1012.3 |
| 20260507170531 | 14 | 223 | 4.8 | 9.7 | 0.00 | 0.00 | 0.00 | 45 | 1012.8 |
| 20260507170028 | 14 | 233 | 6.4 | 14.5 | 0.00 | 0.00 | 0.00 | 44 | 1012.5 |
| 20260507165524 | 14 | 291 | 6.4 | 9.7 | 0.00 | 0.00 | 0.00 | 44 | 1012.7 |
| 20260507165020 | 13 | 129 | 3.2 | 9.7 | 0.00 | 0.00 | 0.00 | 45 | 1012.7 |
| 20260507164517 | 13 | 182 | 3.2 | 11.3 | 0.00 | 0.00 | 0.00 | 46 | 1012.5 |
| 20260507164014 | 13 | 283 | 4.8 | 12.9 | 0.00 | 0.00 | 0.00 | 45 | 1012.7 |
| 20260507163511 | 14 | 166 | 6.4 | 9.7 | 0.00 | 0.00 | 0.00 | 44 | 1012.9 |
| 20260507163009 | 14 | 100 | 1.6 | 3.2 | 0.00 | 0.00 | 0.00 | 45 | 1012.9 |
| 20260507162503 | 14 | 321 | 4.8 | 9.7 | 0.00 | 0.00 | 0.00 | 43 | 1012.8 |
| 20260507162001 | 13 | 260 | 4.8 | 4.8 | 0.00 | 0.00 | 0.00 | 43 | 1013.1 |
| 20260507161456 | 13 | 197 | 4.8 | 11.3 | 0.00 | 0.00 | 0.00 | 42 | 1013.4 |
| 20260507160954 | 13 | 162 | 6.4 | 9.7 | 0.00 | 0.00 | 0.00 | 44 | 1013.5 |
| 20260507160449 | 13 | 126 | 4.8 | 14.5 | 0.00 | 0.00 | 0.00 | 44 | 1013.4 |
| 20260507155945 | 13 | 160 | 6.4 | 12.9 | 0.00 | 0.00 | 0.00 | 41 | 1013.5 |
| 20260507155442 | 13 | 191 | 4.8 | 8.0 | 0.00 | 0.00 | 0.00 | 44 | 1013.3 |
| 20260507154939 | 13 | 95 | 1.6 | 8.0 | 0.00 | 0.00 | 0.00 | 44 | 1013.7 |
| 20260507154435 | 13 | 261 | 4.8 | 14.5 | 0.00 | 0.00 | 0.00 | 44 | 1013.5 |
| 20260507153933 | 12 | 186 | 1.6 | 4.8 | 0.00 | 0.00 | 0.00 | 45 | 1013.4 |